CW7453 Weather Reports


time (UTC)temp
F
wind
direction
speed
knots
gust
knots
rain 1hr
in
rain 24hr
in
rain mn
in
humidity
%
barometer
mb
20260510094605 57 0 0.0 0.0 0.00 0.00 0.00 69 1014.2
20260510093100 57 0 0.0 0.0 0.00 0.00 0.00 69 1014.2
20260510091554 57 0 0.0 0.0 0.00 0.00 0.00 71 1014.3
20260510090056 57 0 0.0 0.0 0.00 0.00 0.00 72 1014.2
20260510084553 57 0 0.0 0.0 0.00 0.00 0.00 74 1014.3
20260510083053 57 0 0.0 0.0 0.00 0.00 0.00 73 1014.3
20260510081558 57 0 0.0 0.0 0.00 0.00 0.00 72 1014.1
20260510080057 56 0 0.0 0.9 0.00 0.00 0.00 77 1013.8
20260510074605 56 81 0.0 0.9 0.00 0.00 0.00 79 1013.6
20260510073056 55 81 0.0 1.7 0.00 0.00 0.00 83 1013.6
20260510071557 54 90 0.9 1.7 0.00 0.00 0.00 84 1013.5
20260510070108 54 93 0.9 1.7 0.00 0.00 0.00 84 1013.3
20260510064601 55 86 0.9 0.9 0.00 0.00 0.00 82 1013.3
20260510063101 56 89 0.0 0.9 0.00 0.00 0.00 80 1013.3
20260510061558 57 90 0.0 0.9 0.00 0.00 0.00 78 1013.3
20260510060056 57 88 0.0 0.9 0.00 0.00 0.00 78 1013.2
20260510054601 57 92 0.9 1.7 0.00 0.00 0.00 78 1013.2
20260510053057 58 87 0.0 0.9 0.00 0.00 0.00 77 1013.3
20260510051558 58 87 0.0 0.9 0.00 0.00 0.00 77 1013.5
20260510050059 58 88 0.0 0.9 0.00 0.00 0.00 77 1013.4
20260510044604 57 88 0.0 0.9 0.00 0.00 0.00 77 1013.4
20260510043106 58 93 0.9 0.9 0.00 0.00 0.00 77 1013.5
20260510041600 57 91 0.9 1.7 0.00 0.00 0.00 76 1013.4
20260510040100 58 96 0.9 1.7 0.00 0.00 0.00 74 1013.4
20260510034555 60 91 1.7 2.6 0.00 0.00 0.00 69 1013.3
20260510033121 63 88 0.0 1.7 0.00 0.00 0.00 64 1013.2
20260510031621 64 0 0.0 0.9 0.00 0.00 0.00 61 1013.1
20260510024557 64 342 0.0 1.7 0.00 0.00 0.00 61 1013.3
20260510023059 64 0 0.0 1.7 0.00 0.00 0.00 61 1013.1
20260510021600 64 0 0.0 1.7 0.00 0.00 0.00 63 1013.1
20260510020109 64 0 0.0 1.7 0.00 0.00 0.00 61 1012.9
20260510014609 64 0 0.0 0.0 0.00 0.00 0.00 60 1012.8
20260510013109 64 0 0.0 0.0 0.00 0.00 0.00 60 1012.6
20260510011612 64 0 0.0 0.0 0.00 0.00 0.00 59 1012.2
20260510010110 65 0 0.0 0.0 0.00 0.00 0.00 59 1011.9
20260510004603 64 0 0.0 0.0 0.00 0.00 0.00 59 1011.8
20260510003111 65 0 0.0 0.0 0.00 0.00 0.00 59 1011.7
20260510001608 65 0 0.0 0.0 0.00 0.00 0.00 60 1011.7
20260510000100 65 0 0.0 0.0 0.00 0.00 0.00 61 1011.7
20260509234607 66 0 0.0 0.0 0.00 0.00 0.00 59 1011.6
20260509233059 66 0 0.0 0.0 0.00 0.00 0.00 60 1011.5
20260509231557 67 0 0.0 0.0 0.00 0.00 0.00 60 1011.3
20260509230106 68 0 0.0 0.9 0.00 0.00 0.00 60 1011.3
20260509224557 68 0 0.0 0.9 0.00 0.00 0.00 57 1011.3
20260509223100 68 0 0.0 1.7 0.00 0.00 0.00 54 1011.4
20260509221558 69 120 0.9 1.7 0.00 0.00 0.00 51 1011.3
20260509220103 71 0 0.0 1.7 0.00 0.00 0.00 53 1011.4
20260509214558 69 75 0.0 0.9 0.00 0.00 0.00 58 1011.5
20260509213103 70 0 0.0 0.9 0.00 0.00 0.00 55 1011.3
20260509211604 70 93 0.0 1.7 0.00 0.00 0.00 54 1011.3
20260509204604 70 0 0.0 3.5 0.00 0.00 0.00 54 1011.2
20260509203100 70 268 0.0 2.6 0.00 0.00 0.00 54 1011.2
20260509201556 69 286 0.9 1.7 0.00 0.00 0.00 54 1011.2
20260509200057 69 286 0.9 5.2 0.00 0.00 0.00 57 1011.1
20260509194557 68 45 0.9 4.3 0.00 0.00 0.00 57 1011.4
20260509193057 67 250 1.7 5.2 0.00 0.00 0.00 62 1011.5
20260509191601 66 240 0.9 4.3 0.00 0.00 0.00 62 1011.9
20260509190059 66 0 0.9 4.3 0.00 0.00 0.00 61 1012.0
20260509184558 66 250 0.9 5.2 0.00 0.00 0.00 60 1012.2
20260509183057 66 318 0.0 6.1 0.00 0.00 0.00 61 1012.4
20260509181603 65 0 0.0 2.6 0.00 0.00 0.00 61 1012.3
20260509180059 65 269 0.9 2.6 0.00 0.00 0.00 60 1012.8
20260509174604 66 0 0.0 1.7 0.00 0.00 0.00 61 1013.1
20260509173119 67 0 0.0 0.9 0.00 0.00 0.00 57 1013.3
20260509171604 66 226 0.9 5.2 0.00 0.00 0.00 58 1013.2
20260509170056 64 0 0.9 4.3 0.00 0.00 0.00 61 1013.2
20260509164557 64 250 1.7 4.3 0.00 0.00 0.00 61 1013.3
20260509163105 63 250 0.9 4.3 0.00 0.00 0.00 62 1013.6
20260509161604 63 280 1.7 3.5 0.00 0.00 0.00 60 1013.3
20260509160100 63 285 1.7 6.1 0.00 0.00 0.00 60 1013.3
20260509154616 62 278 2.6 4.3 0.00 0.00 0.00 63 1013.4
20260509153058 62 60 1.7 4.3 0.00 0.00 0.00 62 1013.4
20260509151557 61 77 0.9 2.6 0.00 0.00 0.00 59 1013.5
20260509150057 60 0 1.7 4.3 0.00 0.00 0.00 62 1013.6
20260509144611 61 74 0.0 4.3 0.00 0.00 0.00 61 1013.8
20260509143059 60 300 0.0 0.9 0.00 0.00 0.00 62 1013.7
20260509141555 58 288 0.9 4.3 0.00 0.00 0.00 64 1014.0
20260509140110 56 269 0.0 2.6 0.00 0.00 0.00 67 1014.0
20260509134555 54 0 1.7 2.6 0.00 0.00 0.00 69 1013.8
20260509133105 53 243 0.9 2.6 0.00 0.00 0.00 71 1013.8
20260509131602 53 0 0.9 1.7 0.00 0.00 0.00 71 1014.1
20260509130107 53 298 0.0 1.7 0.00 0.00 0.00 70 1014.0
20260509124614 53 278 0.0 1.7 0.00 0.00 0.00 70 1014.0
20260509123055 52 0 0.0 1.7 0.00 0.00 0.00 70 1014.1
20260509121609 52 254 1.7 4.3 0.00 0.00 0.00 68 1013.7
20260509120059 52 255 1.7 3.5 0.00 0.00 0.00 67 1013.7
20260509114559 53 255 1.7 2.6 0.00 0.00 0.00 66 1013.7
20260509113101 54 256 1.7 4.3 0.00 0.00 0.00 63 1013.6
20260509111607 57 264 0.9 2.6 0.00 0.00 0.00 54 1013.3
20260509110104 58 152 0.9 5.2 0.00 0.00 0.00 50 1013.3
20260509104555 58 116 0.9 7.0 0.00 0.00 0.00 49 1013.0
20260509103104 58 58 2.6 7.8 0.00 0.00 0.00 49 1013.0
20260509101600 58 82 3.5 11.3 0.00 0.00 0.00 48 1013.0
20260509100057 58 37 2.6 7.8 0.00 0.00 0.00 48 1013.0